Weather History for Fort Rucker / Ozark, AL

Change the Weather History Date:

Tuesday, September 10, 2013

  Actual Average (KOZR) Record (KOZR)
Temperature  
Mean Temperature 82 °F -  
Max Temperature 91 °F 84 °F 97 °F (2010)
Min Temperature 73 °F 65 °F 58 °F (2011)
Cooling Degree Days 17    
Growing Degree Days 32 (Base 50)    
Moisture  
Dew Point 69 °F    
Average Humidity 71    
Maximum Humidity 94    
Minimum Humidity 42    
Precipitation  
Precipitation 0.00 in - - ()
Sea Level Pressure  
Sea Level Pressure 29.83 in    
Wind  
Wind Speed 4 mph (East)    
Max Wind Speed 9 mph    
Max Gust Speed 18 mph    
Visibility 8 miles    
Events Rain    
Averages and records for this station are not official NWS values.
T = Trace of Precipitation, MM = Missing Value Source: NWS Daily Summary

Daily Weather History Graph

Daily Weather History Graph

Search for Another Location

Airport:

Trip Planner

Search our weather history database for the weather conditions in past years. The results will help you decide how hot, cold, wet, or windy it might be!

Date:

Astronomy

Sep. 10, 2013 Rise Set
Actual Time 6:23 AM CDT 6:54 PM CDT
Civil Twilight 5:59 AM CDT 7:18 PM CDT
Nautical Twilight 5:30 AM CDT 7:47 PM CDT
Astronomical Twilight 5:01 AM CDT 8:16 PM CDT
Moon 11:26 AM CDT (9/10) 10:20 PM CDT (9/10)
Length of Visible Light 13h 19m
Length of Day
12h 30m
Waxing Crescent, 28% of the Moon is Illuminated
Sep 10
Waxing Crescent
Sep 12
First Quarter
Sep 19
Full
Sep 26
Last Quarter
Oct 4
New

Hourly Weather History & Observations

Time (CDT) Temp. Heat Index Dew Point Humidity Pressure Visibility Wind Dir Wind Speed Gust Speed Precip Events Conditions
12:25 AM 75.2 °F - 73.4 °F 94% 30.07 in 2.5 mi WNW 3.5 mph - N/A   Mostly Cloudy
12:34 AM 75.2 °F - 73.4 °F 94% 30.07 in 4.0 mi WNW 3.5 mph - N/A   Mostly Cloudy
12:53 AM 75.9 °F - 73.0 °F 91% 29.75 in 5.0 mi Calm Calm - N/A   Overcast
1:41 AM 73.4 °F - 71.6 °F 94% 30.08 in 1.8 mi Calm Calm - N/A   Partly Cloudy
1:53 AM 75.0 °F - 72.0 °F 90% 29.75 in 2.5 mi Calm Calm - N/A   Scattered Clouds
2:08 AM 75.2 °F - 71.6 °F 89% 30.08 in 4.0 mi East 5.8 mph - N/A   Mostly Cloudy
2:53 AM 73.9 °F - 72.0 °F 93% 29.74 in 5.0 mi Calm Calm - N/A   Clear
3:53 AM 75.0 °F - 71.1 °F 87% 29.75 in 7.0 mi ENE 5.8 mph - N/A   Clear
4:53 AM 73.9 °F - 70.0 °F 87% 29.75 in 7.0 mi East 4.6 mph - N/A   Clear
5:53 AM 73.9 °F - 70.0 °F 87% 29.78 in 8.0 mi East 3.5 mph - N/A   Clear
6:53 AM 73.0 °F - 70.0 °F 90% 29.80 in 7.0 mi East 4.6 mph - N/A   Clear
7:53 AM 75.0 °F - 70.0 °F 84% 29.81 in 8.0 mi East 4.6 mph - N/A   Clear
8:53 AM 79.0 °F - 70.0 °F 74% 29.83 in 10.0 mi ESE 6.9 mph - N/A   Clear
9:53 AM 82.9 °F 85.8 °F 68.0 °F 60% 29.83 in 10.0 mi SE 8.1 mph - N/A   Clear
10:53 AM 84.9 °F 87.6 °F 66.9 °F 55% 29.84 in 10.0 mi East 8.1 mph - N/A   Clear
11:53 AM 88.0 °F 90.7 °F 66.9 °F 49% 29.83 in 10.0 mi ESE 8.1 mph 18.4 mph N/A   Partly Cloudy
12:53 PM 89.1 °F 92.1 °F 66.9 °F 48% 29.83 in 10.0 mi ENE 9.2 mph - N/A   Mostly Cloudy
1:53 PM 91.0 °F 93.8 °F 66.0 °F 44% 29.80 in 10.0 mi ESE 9.2 mph - N/A   Partly Cloudy
2:53 PM 90.0 °F 91.3 °F 64.0 °F 42% 29.78 in 10.0 mi ESE 6.9 mph - N/A   Partly Cloudy
3:53 PM 88.0 °F 90.3 °F 66.0 °F 48% 29.77 in 10.0 mi East 6.9 mph - N/A   Partly Cloudy
4:53 PM 90.0 °F 92.4 °F 66.0 °F 45% 29.76 in 10.0 mi East 9.2 mph - N/A   Mostly Cloudy
5:53 PM 88.0 °F 90.7 °F 66.9 °F 49% 29.77 in 10.0 mi East 4.6 mph - N/A   Clear
6:53 PM 86.0 °F 88.8 °F 66.9 °F 53% 29.78 in 10.0 mi ENE 5.8 mph - N/A   Clear
7:53 PM 84.0 °F 87.0 °F 68.0 °F 58% 29.79 in 10.0 mi NE 6.9 mph - N/A   Clear
8:53 PM 84.0 °F 87.0 °F 68.0 °F 58% 29.81 in 10.0 mi ENE 5.8 mph - N/A   Clear
9:53 PM 82.0 °F 84.9 °F 68.0 °F 62% 29.81 in 10.0 mi NE 6.9 mph - N/A   Clear
10:53 PM 77.0 °F - 70.0 °F 79% 29.82 in 10.0 mi East 5.8 mph - N/A   Partly Cloudy
11:53 PM 78.1 °F - 70.0 °F 76% 29.81 in 10.0 mi East 5.8 mph - 0.00 in Rain Light Rain